Freeport, IL

7:40 AM CST on December 08, 2019 (GMT -0600)
Albertus

Weather History for KFEP - October, 2019

Change the Weather History Date:

Wednesday, October 2, 2019

  Actual Average Record
Temperature  
Mean Temperature 61 °F -  
Max Temperature 68 °F 67 °F 87 °F (1976)
Min Temperature 54 °F 41 °F 23 °F (2003)
Degree Days  
Heating Degree Days 4    
Growing Degree Days 11 (Base 50)    
Moisture  
Dew Point 59 °F    
Average Humidity 100    
Maximum Humidity 100    
Minimum Humidity 94    
Precipitation  
Precipitation 1.51 in - - ()
Sea Level Pressure  
Sea Level Pressure 29.94 in    
Wind  
Wind Speed 7 mph (ENE)    
Max Wind Speed 17 mph    
Max Gust Speed 24 mph    
Visibility 8 miles    
Events Rain , Thunderstorm    
Averages and records for this station are not official NWS values.
T = Trace of Precipitation, MM = Missing Value Source: NWS Daily Summary

Daily Weather History Graph

Daily Weather History Graph

Search for Another Location

Airport or City:

Astronomy

Oct. 02, 2019 Rise Set
Actual Time 6:56 AM CDT 6:38 PM CDT
Civil Twilight 6:28 AM CDT 7:06 PM CDT
Nautical Twilight 5:55 AM CDT 7:38 PM CDT
Astronomical Twilight 5:22 AM CDT 8:11 PM CDT
Moon 11:26 AM CDT (10/2) 9:27 PM CDT (10/2)
Length of Visible Light 12h 38m
Length of Day
11h 42m
Waxing Crescent, 20% of the Moon is Illuminated
Oct 2
Waxing Crescent
Oct 5
First Quarter
Oct 13
Full
Oct 21
Last Quarter
Oct 27
New

Hourly Weather History & Observations

Time (CDT) Temp. Dew Point Humidity Pressure Visibility Wind Dir Wind Speed Gust Speed Precip Events Conditions
12:15 AM 67.5 °F 67.5 °F 100% 29.88 in 10.0 mi Calm Calm - 0.03 in Rain Light Rain
12:35 AM 67.5 °F 67.5 °F 100% 29.88 in 10.0 mi ESE 3.5 mph - 0.06 in Rain Light Rain
12:55 AM 67.5 °F 67.5 °F 100% 29.88 in 10.0 mi SE 3.5 mph - 0.09 in   Overcast
1:15 AM 67.5 °F 67.5 °F 100% 29.87 in 10.0 mi SE 3.5 mph - 0.02 in   Mostly Cloudy
1:35 AM 67.5 °F 67.5 °F 100% 29.86 in 10.0 mi SSE 4.6 mph - 0.05 in   Mostly Cloudy
1:55 AM 67.6 °F 67.6 °F 100% 29.85 in 10.0 mi SE 5.8 mph - 0.07 in Rain Light Rain
2:15 AM 68.0 °F 68.0 °F 100% 29.85 in 10.0 mi SE 4.6 mph - 0.02 in   Mostly Cloudy
2:35 AM 68.0 °F 68.0 °F 100% 29.85 in 10.0 mi Calm Calm - 0.04 in Rain Light Rain
2:55 AM 68.0 °F 68.0 °F 100% 29.85 in 10.0 mi Calm Calm - 0.07 in Rain Light Rain
3:15 AM 68.0 °F 68.0 °F 100% 29.85 in 5.0 mi ESE 4.6 mph - 0.02 in Rain Light Rain
3:35 AM 68.0 °F 68.0 °F 100% 29.85 in 7.0 mi East 3.5 mph - 0.04 in Rain Rain
3:55 AM 68.0 °F 68.0 °F 100% 29.84 in 1.8 mi East 5.8 mph - 0.06 in Rain Heavy Rain
4:15 AM 68.0 °F 68.0 °F 100% 29.84 in 3.0 mi East 5.8 mph - 0.02 in Rain Rain
4:35 AM 68.0 °F 68.0 °F 100% 29.83 in 4.0 mi ENE 8.1 mph - 0.04 in Rain Light Rain
4:55 AM 68.0 °F 68.0 °F 100% 29.83 in 1.5 mi East 11.5 mph - 0.07 in Rain Heavy Rain
5:15 AM 67.8 °F 67.6 °F 99% 29.83 in 1.8 mi ENE 3.5 mph - 0.02 in Rain Heavy Rain
5:35 AM 62.6 °F 62.6 °F 100% 29.85 in 3.0 mi NNE 9.2 mph - 0.06 in Rain Rain
5:55 AM 59.2 °F 59.2 °F 100% 29.86 in 3.0 mi NE 16.1 mph 21.9 mph 0.09 in Rain Light Rain
6:35 AM 57.2 °F 57.2 °F 100% 29.89 in 4.0 mi NE 13.8 mph 17.3 mph 0.07 in Rain Light Rain
6:55 AM 56.3 °F 56.3 °F 100% 29.90 in 4.0 mi NE 10.4 mph 24.2 mph 0.11 in Rain Light Rain
7:35 AM 55.6 °F 55.6 °F 100% 29.92 in 5.0 mi NE 13.8 mph 17.3 mph 0.07 in   Overcast
7:55 AM 55.4 °F 55.4 °F 100% 29.93 in 10.0 mi NE 11.5 mph 18.4 mph 0.11 in   Overcast
8:15 AM 55.0 °F 55.0 °F 100% 29.93 in 10.0 mi NE 16.1 mph 23.0 mph 0.03 in   Overcast
8:35 AM 54.7 °F 54.7 °F 100% 29.95 in 10.0 mi NE 10.4 mph 23.0 mph 0.07 in   Overcast
8:55 AM 54.7 °F 54.7 °F 100% 29.96 in 10.0 mi NE 17.3 mph 23.0 mph 0.10 in   Overcast
9:15 AM 54.9 °F 54.9 °F 100% 29.97 in 10.0 mi NE 10.4 mph 19.6 mph 0.02 in   Overcast
9:35 AM 54.5 °F 54.5 °F 100% 29.97 in 5.0 mi NE 12.7 mph 21.9 mph 0.05 in   Overcast
9:55 AM 54.5 °F 54.5 °F 100% 29.98 in 5.0 mi NE 10.4 mph - 0.09 in   Overcast
10:15 AM 55.0 °F 55.0 °F 100% 29.99 in 10.0 mi NE 8.1 mph 16.1 mph 0.03 in   Overcast
10:35 AM 55.4 °F 55.4 °F 100% 29.98 in 10.0 mi ENE 10.4 mph 16.1 mph 0.06 in   Overcast
10:55 AM 55.4 °F 55.4 °F 100% 30.00 in 10.0 mi NE 11.5 mph - 0.09 in   Overcast
11:15 AM 55.8 °F 55.8 °F 100% 30.00 in 7.0 mi NE 9.2 mph - 0.03 in   Overcast
11:35 AM 55.9 °F 55.9 °F 100% 30.00 in 10.0 mi NE 13.8 mph 18.4 mph 0.05 in   Overcast
11:55 AM 56.3 °F 56.3 °F 100% 30.00 in 10.0 mi ENE 6.9 mph - 0.08 in   Overcast
12:15 PM 56.7 °F 56.3 °F 99% 30.00 in 10.0 mi NE 11.5 mph - 0.02 in   Overcast
12:35 PM 57.2 °F 56.7 °F 98% 30.00 in 10.0 mi ENE 12.7 mph - 0.05 in   Overcast
12:55 PM 57.2 °F 55.8 °F 95% 30.01 in 10.0 mi ENE 11.5 mph 21.9 mph 0.07 in   Overcast
1:15 PM 57.2 °F 55.8 °F 95% 30.01 in 10.0 mi NE 9.2 mph - 0.02 in   Overcast
1:35 PM 56.5 °F 56.3 °F 99% 29.99 in 7.0 mi ENE 10.4 mph - 0.04 in   Overcast
1:55 PM 56.8 °F 55.9 °F 97% 29.99 in 10.0 mi NE 10.4 mph - 0.07 in   Overcast
2:15 PM 57.6 °F 55.9 °F 94% 30.01 in 10.0 mi NE 8.1 mph - 0.02 in   Overcast
2:35 PM 57.4 °F 56.1 °F 96% 30.00 in 10.0 mi ENE 13.8 mph - 0.05 in   Overcast
2:55 PM 56.8 °F 56.5 °F 99% 30.02 in 10.0 mi NNE 5.8 mph - 0.07 in   Overcast
3:35 PM 57.0 °F 57.0 °F 100% 30.01 in 7.0 mi East 9.2 mph - 0.04 in Rain Light Rain
3:55 PM 57.2 °F 57.2 °F 100% 29.97 in 7.0 mi East 11.5 mph 18.4 mph 0.06 in   Light Drizzle
4:15 PM 56.5 °F 56.5 °F 100% 29.99 in 7.0 mi ENE 9.2 mph - 0.02 in   Overcast
4:35 PM 56.7 °F 56.7 °F 100% 29.99 in 7.0 mi East 6.9 mph - 0.03 in Rain Light Rain
4:55 PM 56.7 °F 56.7 °F 100% 29.98 in 5.0 mi East 10.4 mph - 0.05 in Rain Rain
5:15 PM 56.5 °F 56.5 °F 100% 29.99 in 7.0 mi ENE 6.9 mph - 0.01 in Rain Light Rain
5:35 PM 56.8 °F 56.8 °F 100% 29.99 in 7.0 mi East 6.9 mph - 0.03 in   Overcast
5:55 PM 56.7 °F 56.7 °F 100% 29.99 in 10.0 mi East 6.9 mph - 0.04 in   Overcast
6:15 PM 56.7 °F 56.7 °F 100% 29.98 in 7.0 mi East 9.2 mph - 0.01 in   Overcast
6:35 PM 56.5 °F 56.5 °F 100% 29.99 in 10.0 mi East 6.9 mph - 0.02 in   Overcast
6:55 PM 56.3 °F 56.3 °F 100% 29.98 in 10.0 mi East 6.9 mph - 0.04 in   Overcast
7:15 PM 56.3 °F 56.3 °F 100% 29.98 in 10.0 mi East 6.9 mph - 0.01 in   Overcast
7:35 PM 56.3 °F 56.3 °F 100% 29.97 in 10.0 mi East 10.4 mph - 0.02 in   Overcast
7:55 PM 56.3 °F 56.3 °F 100% 29.97 in 10.0 mi East 6.9 mph - 0.03 in   Overcast
8:15 PM 55.9 °F 55.9 °F 100% 29.96 in 10.0 mi East 12.7 mph 17.3 mph 0.01 in   Overcast
8:35 PM 55.6 °F 55.6 °F 100% 29.96 in 7.0 mi East 9.2 mph - 0.01 in Rain Light Rain
8:55 PM 55.4 °F 55.4 °F 100% 29.96 in 10.0 mi East 8.1 mph - 0.01 in Rain Light Rain
9:15 PM 55.0 °F 55.0 °F 100% 29.95 in 10.0 mi ENE 9.2 mph - N/A   Overcast
9:35 PM 54.9 °F 54.9 °F 100% 29.97 in 10.0 mi ENE 6.9 mph - N/A Rain Light Rain
9:55 PM 55.0 °F 55.0 °F 100% 29.96 in 10.0 mi NE 5.8 mph - N/A   Overcast
10:15 PM 54.9 °F 54.9 °F 100% 29.96 in 4.0 mi NE 8.1 mph - N/A Rain Light Rain
10:35 PM 54.5 °F 54.5 °F 100% 29.96 in 5.0 mi NE 5.8 mph - 0.01 in Rain Light Rain
10:55 PM 54.5 °F 54.5 °F 100% 29.96 in 4.0 mi NE 5.8 mph - 0.02 in Rain Light Rain
11:15 PM 54.5 °F 54.5 °F 100% 29.96 in 10.0 mi East 4.6 mph - N/A Rain , Thunderstorm Light Thunderstorms and Rain
11:35 PM 54.7 °F 54.7 °F 100% 29.95 in 7.0 mi East 3.5 mph - 0.01 in Rain , Thunderstorm Light Thunderstorms and Rain
11:55 PM 54.9 °F 54.9 °F 100% 29.94 in 10.0 mi East 5.8 mph - 0.02 in   Overcast